STARLINK-1417, 45693

Orbit data source: Space-Track

STARLINK-1417, 45693 is a payload satellite owned by SpaceX/Seattle (US) in LEO that was launched on Thu, 04 Jun 2020 UTC via an FALCON 9 launch vehicle from the Air Force Eastern Test Range (AFETR). Payload-class satellites include a variety of spacecraft equipped with specific instruments for various scientific and technological missions. These include communications satellites like Starlink; space stations such as the ISS; scientific satellites like the Hubble; Earth observation satellites from companies like Planet Labs, Umbra, and HawkEye 360; GPS; miniature CubeSats for education and research; and military/defense satellites.

Loading next visibility...
Identifier
45693, 2020-035AN
Orbit
LEO
Country
Flag of USUS
Related business
Manufacturer
SpaceX/Seattle
Mission
Operational Commercial Communications
Bus & Motor
STARLINK, Unknown motor
Mass
260 kg wet, ~248 kg dry
Launch date (UTC)
2020-06-04 (5 years ago)
Launch vehicle
FALCON 9
Launch site
Air Force Eastern Test Range (AFETR)
Object type
Payload
Rocket body
Debris
Shape & HBR
Box + 1 Pan, 10.1 m
Radar Cross Section
13.562 m², Large (>1 m²)

Expand to show TLE details & history
Last TLE update: 13 hours ago

TLE from 13 hours ago
0 STARLINK-1417
1 45693U 20035AN  25305.63423216 -.00001673  00000-0 -93475-4 0  9990
2 45693  53.0540 271.4853 0001457  91.4252 268.6904 15.06385039299562
Epoch: 2025-11-01T15:13Z
TLE epoch observation values (Epoch: 2025-11-01T15:13:17.658Z)
Latitude
-0.00002°
Longitude
2.00021°
Altitude
548.16 km
Speed
7.589 km/s
True Right ascension
18h 05m 56s
True Declination
0° 00' 00"
Sunlit
Object was in daylight at epoch
Visualization orbit readout
Latitude
Unknown
Longitude
Unknown
Altitude
Unknown
Speed
Unknown
Apparent Right ascension
Unknown
Apparent Declination
Unknown
Sunlit
N/A
Visualization observer readout
Local Sidereal Time
23:48:18
Azimuth
Unknown
Elevation
Unknown
Doppler factor
Unknown
Orbital elements
Apogee altitude
548.537 km
Perigee altitude
546.519 km
Semi-major axis
6,925.665 km
Eccentricity
0.00015
Inclination
53.054°
RAAN
271.4853°
Arg. of periapsis
91.4252°
True anomaly
268.67371°
Mean anomaly
268.6904°
Eccentric anomaly
268.68205°
Mean motion
3.76575 °/min
Orbital period
95.6 mins
BSTAR
-0.000093475
Loading maneuver chart data...
Computing Atmospheric mass density...
Loading historical data...
Loading historical data...
Loading historical data...
Loading historical data...
Loading historical data...
Loading historical data...
Loading historical data...

Documentation

Showing up to 5 results
|